Location: Cheyres
(46.8153°N, 6.7877°E)
Time: 12:01:08
(UTC+00:00)

Gbstr 26 Del rocket - Pass Details

Date: 18 September 2021
Orbit: 492 x 1263 km, 51.8° (Epoch: 18 October)

Event Time Altitude Azimuth Distance (km) Brightness Sun altitude
Exits shadow 23:53:05 31° 62° (ENE) 2,004 5.7 -41.4°
Drops below altitude 10° 23:56:42 10° 65° (ENE) 3,118 6.9 -41.3°
Sets 23:59:22 0° 67° (ENE) 4,009 7.6 -41.2°
